Regional Weather Roundup
Issued by NWS

Home | Current Version | Previous Version | Text Only | Print | Product List | Glossary Off
Versions: 1 2 3 4 5 6 7 8 9 10 11 12 13 14 15 16 17 18 19 20 21 22 23 24 25 26 27 28 29 30 31 32 33 34 35 36 37 38 39 40 41 42 43 44 45 46 47 48 49 50

000
ASUS43 KOAX 252310
RWRNE

WEATHER ROUNDUP FOR NEBRASKA
NATIONAL WEATHER SERVICE OMAHA NE
600 PM CDT SAT OCT 25 2014

NOTES: SATELLITE DATA IS BEING USED TO AUGMENT CLOUD COVER ABOVE
       12000 FEET.
       "FAIR" INDICATES FEW OR NO CLOUDS BELOW 12,000 FEET WITH NO
       SIGNIFICANT WEATHER AND/OR OBSTRUCTIONS TO VISIBILITY.

  * THESE STATIONS DO NOT REPORT WEATHER SUCH AS RAIN...SNOW OR FOG.

NEZ001>004-019>022-054>056-260000-
NEBRASKA PANHANDLE

CITY           SKY/WX    TMP DP  RH WIND       PRES   REMARKS
SCOTTSBLUFF    CLEAR     74  35  24 SE13      30.00F
ALLIANCE       CLEAR     72  41  32 SE8       30.00F
CHADRON        CLEAR     72  42  34 E6        29.97F
KIMBALL        CLEAR     75  27  17 SE9       30.05F
SIDNEY         CLEAR     73  36  25 SE8       30.06S
$$

NEZ057>060-069>072-079>082-260000-
SOUTHWEST NEBRASKA

CITY           SKY/WX    TMP DP  RH WIND       PRES   REMARKS
NORTH PLATTE   CLEAR     72  47  40 E12       29.99F
IMPERIAL       CLEAR     77  40  26 SE8       30.00F
LEXINGTON      CLEAR     74  48  39 E13       30.00F
MCCOOK         CLEAR     82  44  26 SE9       29.97F
OGALLALA       CLEAR     78  41  26 CALM      30.01S
$$

NEZ005>010-023>029-035>040-094-260000-
NORTH CENTRAL NEBRASKA

CITY           SKY/WX    TMP DP  RH WIND       PRES   REMARKS
VALENTINE      CLEAR     68  32  26 E12       30.03F
AINSWORTH      CLEAR     65  33  30 E7        30.04F
BROKEN BOW     CLEAR     70  46  42 SE10      30.02F
O`NEILL        CLEAR     66  37  33 E7        30.06F
ORD            CLEAR     68  40  35 SE9       30.03F
THEDFORD       CLEAR     72  41  33 E10       30.04S
$$

NEZ041-046>049-061>064-073>077-083>087-260000-
SOUTH CENTRAL NEBRASKA

CITY           SKY/WX    TMP DP  RH WIND       PRES   REMARKS
GRAND ISLAND   CLEAR     71  43  36 E7        30.03F
AURORA         CLEAR     70  40  34 E6        30.03F
HASTINGS       CLEAR     73  43  33 E8        30.01F
HEBRON         CLEAR     76  49  38 E5        30.00F
HOLDREGE       CLEAR     74  50  41 E13       30.00F
KEARNEY *      CLEAR     72  46  40 E10       30.02F
YORK           CLEAR     66  46  48 E8        30.04F
$$

NEZ011>018-030>034-042>045-260000-
NORTHEAST NEBRASKA

CITY           SKY/WX    TMP DP  RH WIND       PRES   REMARKS
NORFOLK        CLEAR     67  37  33 E6        30.05F
ALBION         CLEAR     68  38  32 E7        30.05S
BLAIR          CLEAR     70  40  33 NE5       30.05S HAZE
COLUMBUS *     CLEAR     68  39  34 E7        30.06F
FREMONT        CLEAR     70  38  30 E7        30.05F
TEKAMAH        CLEAR     70  38  31 NE6       30.04F
WAYNE          CLEAR     65  37  35 E7        30.06F HAZE
$$

NEZ050>053-065>068-078-088>093-260000-
SOUTHEAST NEBRASKA

CITY           SKY/WX    TMP DP  RH WIND       PRES   REMARKS
LINCOLN        CLEAR     68  47  46 NE8       30.04F
OMAHA EPPLEY   CLEAR     70  42  36 NE6       30.04F
BEATRICE       CLEAR     73  49  42 E5        30.02S
FALLS CITY     CLEAR     74  45  35 E6        30.01F
NEBRASKA CITY  CLEAR     72  34  24 NE5       30.03F
PLATTSMOUTH    CLEAR     71  40  31 NE5       30.04S
$$

NEZ044-045-051>053-067-260000-
OMAHA AREA

CITY           SKY/WX    TMP DP  RH WIND       PRES   REMARKS
OMAHA EPPLEY   CLEAR     70  42  36 NE6       30.04F
BLAIR          CLEAR     70  40  33 NE5       30.05S HAZE
FREMONT        CLEAR     70  38  30 E7        30.05F
MILLARD        CLEAR     73  43  35 CALM      30.03F
OFFUTT AFB     CLEAR     71  46  41 NE6       30.03F
PLATTSMOUTH    CLEAR     71  40  31 NE5       30.04S
WAHOO          FAIR      69  43  38 E6        30.04F
$$



USA.gov is the U.S. government's official web portal to all federal, state and local government web resources and services.